| time (UTC) | temp F | wind direction | speed knots | gust knots | rain 1hr in | rain 24hr in | rain mn in | humidity % | barometer mb |
| 20260906224515 | 76 | 254 | 6.1 | 10.4 | 0.00 | 0.00 | 0.00 | 17 | 1024.6 |
| 20260906224004 | 76 | 246 | 7.0 | 14.8 | 0.00 | 0.00 | 0.00 | 18 | 1024.8 |
| 20260906223515 | 76 | 218 | 12.2 | 17.4 | 0.00 | 0.00 | 0.00 | 18 | 1024.7 |
| 20260906223004 | 77 | 208 | 9.6 | 13.9 | 0.00 | 0.00 | 0.00 | 17 | 1024.8 |
| 20260906222515 | 77 | 153 | 1.7 | 6.1 | 0.00 | 0.00 | 0.00 | 17 | 1024.8 |
| 20260906222003 | 77 | 161 | 5.2 | 10.4 | 0.00 | 0.00 | 0.00 | 17 | 1024.9 |
| 20260906221515 | 76 | 187 | 6.1 | 13.0 | 0.00 | 0.00 | 0.00 | 17 | 1024.9 |
| 20260906221004 | 76 | 233 | 4.3 | 10.4 | 0.00 | 0.00 | 0.00 | 17 | 1025.0 |
| 20260906220515 | 76 | 199 | 5.2 | 14.8 | 0.00 | 0.00 | 0.00 | 18 | 1025.0 |
| 20260906220015 | 77 | 212 | 2.6 | 7.8 | 0.00 | 0.00 | 0.00 | 18 | 1025.1 |
| 20260906215503 | 76 | 153 | 3.5 | 10.4 | 0.00 | 0.00 | 0.00 | 17 | 1025.1 |
| 20260906215015 | 77 | 223 | 6.1 | 18.2 | 0.00 | 0.00 | 0.00 | 15 | 1025.2 |
| 20260906214504 | 77 | 215 | 6.1 | 13.0 | 0.00 | 0.00 | 0.00 | 17 | 1025.2 |
| 20260906214004 | 76 | 208 | 5.2 | 12.2 | 0.00 | 0.00 | 0.00 | 17 | 1025.2 |
| 20260906213514 | 76 | 199 | 5.2 | 12.2 | 0.00 | 0.00 | 0.00 | 18 | 1025.3 |
| 20260906213004 | 75 | 158 | 4.3 | 10.4 | 0.00 | 0.00 | 0.00 | 16 | 1025.4 |
| 20260906212515 | 75 | 149 | 6.1 | 13.0 | 0.00 | 0.00 | 0.00 | 18 | 1025.4 |
| 20260906212004 | 76 | 216 | 13.0 | 19.1 | 0.00 | 0.00 | 0.00 | 17 | 1025.6 |
| 20260906211515 | 76 | 263 | 6.1 | 14.8 | 0.00 | 0.00 | 0.00 | 13 | 1025.5 |
| 20260906211004 | 76 | 216 | 9.6 | 19.1 | 0.00 | 0.00 | 0.00 | 10 | 1025.6 |
| 20260906210515 | 75 | 208 | 11.3 | 17.4 | 0.00 | 0.00 | 0.00 | 12 | 1025.5 |
| 20260906210004 | 76 | 206 | 6.1 | 13.9 | 0.00 | 0.00 | 0.00 | 15 | 1025.5 |
| 20260906205514 | 76 | 221 | 6.1 | 13.9 | 0.00 | 0.00 | 0.00 | 17 | 1025.6 |
| 20260906205004 | 76 | 235 | 7.8 | 17.4 | 0.00 | 0.00 | 0.00 | 18 | 1025.6 |
| 20260906204515 | 76 | 238 | 7.0 | 13.9 | 0.00 | 0.00 | 0.00 | 18 | 1025.6 |
| 20260906204004 | 76 | 252 | 5.2 | 12.2 | 0.00 | 0.00 | 0.00 | 19 | 1025.7 |
| 20260906203514 | 76 | 196 | 5.2 | 13.0 | 0.00 | 0.00 | 0.00 | 18 | 1025.7 |
| 20260906203004 | 76 | 223 | 11.3 | 18.2 | 0.00 | 0.00 | 0.00 | 18 | 1025.6 |
| 20260906202515 | 76 | 163 | 2.6 | 8.7 | 0.00 | 0.00 | 0.00 | 15 | 1025.7 |
| 20260906202003 | 75 | 139 | 4.3 | 10.4 | 0.00 | 0.00 | 0.00 | 15 | 1025.7 |
| 20260906201515 | 75 | 161 | 8.7 | 13.9 | 0.00 | 0.00 | 0.00 | 15 | 1025.8 |
| 20260906201004 | 75 | 230 | 5.2 | 12.2 | 0.00 | 0.00 | 0.00 | 15 | 1025.8 |
| 20260906200515 | 75 | 164 | 7.8 | 13.9 | 0.00 | 0.00 | 0.00 | 17 | 1025.9 |
| 20260906200004 | 75 | 178 | 6.1 | 13.0 | 0.00 | 0.00 | 0.00 | 17 | 1025.9 |
| 20260906195504 | 75 | 208 | 4.3 | 7.8 | 0.00 | 0.00 | 0.00 | 19 | 1025.9 |
| 20260906195014 | 74 | 224 | 6.1 | 13.0 | 0.00 | 0.00 | 0.00 | 19 | 1026.0 |
| 20260906194504 | 74 | 213 | 10.4 | 18.2 | 0.00 | 0.00 | 0.00 | 17 | 1025.9 |
| 20260906194015 | 74 | 161 | 0.0 | 0.0 | 0.00 | 0.00 | 0.00 | 18 | 1025.9 |
| 20260906193504 | 74 | 157 | 0.0 | 0.0 | 0.00 | 0.00 | 0.00 | 20 | 1026.0 |
| 20260906193015 | 74 | 208 | 3.5 | 12.2 | 0.00 | 0.00 | 0.00 | 19 | 1025.9 |
| 20260906192503 | 74 | 207 | 1.7 | 10.4 | 0.00 | 0.00 | 0.00 | 19 | 1026.0 |
| 20260906192015 | 74 | 147 | 0.0 | 0.0 | 0.00 | 0.00 | 0.00 | 19 | 1026.0 |
| 20260906191504 | 73 | 180 | 0.0 | 6.1 | 0.00 | 0.00 | 0.00 | 22 | 1026.0 |
| 20260906191014 | 73 | 190 | 4.3 | 10.4 | 0.00 | 0.00 | 0.00 | 22 | 1026.1 |
| 20260906190504 | 73 | 212 | 3.5 | 13.0 | 0.00 | 0.00 | 0.00 | 21 | 1026.0 |
| 20260906190015 | 74 | 185 | 0.0 | 0.0 | 0.00 | 0.00 | 0.00 | 24 | 1026.1 |
| 20260906185515 | 74 | 185 | 0.0 | 0.0 | 0.00 | 0.00 | 0.00 | 24 | 1026.1 |
| 20260906185003 | 73 | 190 | 0.0 | 11.3 | 0.00 | 0.00 | 0.00 | 23 | 1026.2 |
| 20260906184515 | 74 | 195 | 4.3 | 10.4 | 0.00 | 0.00 | 0.00 | 25 | 1026.3 |
| 20260906184004 | 73 | 155 | 4.3 | 11.3 | 0.00 | 0.00 | 0.00 | 22 | 1026.3 |
| 20260906183515 | 73 | 145 | 5.2 | 11.3 | 0.00 | 0.00 | 0.00 | 25 | 1026.3 |
| 20260906183004 | 72 | 166 | 4.3 | 7.8 | 0.00 | 0.00 | 0.00 | 25 | 1026.4 |
| 20260906182503 | 72 | 203 | 2.6 | 7.0 | 0.00 | 0.00 | 0.00 | 27 | 1026.5 |
| 20260906182015 | 72 | 153 | 4.3 | 12.2 | 0.00 | 0.00 | 0.00 | 27 | 1026.6 |
| 20260906181504 | 71 | 143 | 4.3 | 7.8 | 0.00 | 0.00 | 0.00 | 29 | 1026.6 |
| 20260906181014 | 71 | 155 | 7.8 | 12.2 | 0.00 | 0.00 | 0.00 | 29 | 1026.7 |
| 20260906180504 | 72 | 232 | 6.1 | 10.4 | 0.00 | 0.00 | 0.00 | 28 | 1026.8 |
| 20260906180015 | 71 | 180 | 1.7 | 6.1 | 0.00 | 0.00 | 0.00 | 32 | 1026.9 |
| 20260906175504 | 71 | 159 | 4.3 | 8.7 | 0.00 | 0.00 | 0.00 | 32 | 1026.9 |
| 20260906175015 | 71 | 203 | 2.6 | 7.0 | 0.00 | 0.00 | 0.00 | 32 | 1027.0 |
| 20260906174504 | 71 | 217 | 4.3 | 7.0 | 0.00 | 0.00 | 0.00 | 32 | 1027.1 |
| 20260906174004 | 70 | 169 | 4.3 | 8.7 | 0.00 | 0.00 | 0.00 | 31 | 1027.2 |
| 20260906173515 | 70 | 180 | 2.6 | 7.0 | 0.00 | 0.00 | 0.00 | 33 | 1027.2 |
| 20260906173015 | 70 | 307 | 1.7 | 6.1 | 0.00 | 0.00 | 0.00 | 32 | 1027.2 |
| 20260906172515 | 70 | 237 | 2.6 | 7.8 | 0.00 | 0.00 | 0.00 | 34 | 1027.3 |
| 20260906172004 | 70 | 155 | 5.2 | 10.4 | 0.00 | 0.00 | 0.00 | 36 | 1027.3 |
| 20260906171515 | 70 | 292 | 3.5 | 10.4 | 0.00 | 0.00 | 0.00 | 35 | 1027.3 |
| 20260906171015 | 69 | 242 | 1.7 | 8.7 | 0.00 | 0.00 | 0.00 | 34 | 1027.4 |
| 20260906170503 | 69 | 257 | 4.3 | 7.8 | 0.00 | 0.00 | 0.00 | 34 | 1027.4 |
| 20260906170015 | 68 | 260 | 4.3 | 7.0 | 0.00 | 0.00 | 0.00 | 36 | 1027.5 |
| 20260906165504 | 68 | 209 | 6.1 | 12.2 | 0.00 | 0.00 | 0.00 | 37 | 1027.6 |
| 20260906165015 | 68 | 172 | 4.3 | 7.8 | 0.00 | 0.00 | 0.00 | 39 | 1027.5 |
| 20260906164505 | 68 | 205 | 3.5 | 7.0 | 0.00 | 0.00 | 0.00 | 40 | 1027.5 |
| 20260906164015 | 67 | 213 | 2.6 | 7.0 | 0.00 | 0.00 | 0.00 | 38 | 1027.6 |
| 20260906163504 | 67 | 214 | 1.7 | 6.1 | 0.00 | 0.00 | 0.00 | 42 | 1027.6 |
| 20260906163015 | 66 | 217 | 4.3 | 8.7 | 0.00 | 0.00 | 0.00 | 43 | 1027.6 |
| 20260906162504 | 66 | 183 | 0.0 | 2.6 | 0.00 | 0.00 | 0.00 | 44 | 1027.6 |
| 20260906162015 | 65 | 179 | 1.7 | 4.3 | 0.00 | 0.00 | 0.00 | 44 | 1027.6 |
| 20260906161503 | 65 | 241 | 1.7 | 7.0 | 0.00 | 0.00 | 0.00 | 45 | 1027.5 |
| 20260906161015 | 64 | 279 | 1.7 | 2.6 | 0.00 | 0.00 | 0.00 | 46 | 1027.6 |
| 20260906160504 | 64 | 278 | 1.7 | 7.0 | 0.00 | 0.00 | 0.00 | 46 | 1027.6 |
| 20260906160015 | 64 | 279 | 2.6 | 5.2 | 0.00 | 0.00 | 0.00 | 47 | 1027.6 |
| 20260906155504 | 64 | 241 | 1.7 | 2.6 | 0.00 | 0.00 | 0.00 | 48 | 1027.6 |
| 20260906155015 | 63 | 299 | 1.7 | 5.2 | 0.00 | 0.00 | 0.00 | 48 | 1027.6 |
| 20260906154503 | 63 | 268 | 1.7 | 2.6 | 0.00 | 0.00 | 0.00 | 49 | 1027.6 |
| 20260906154015 | 63 | 291 | 3.5 | 6.1 | 0.00 | 0.00 | 0.00 | 49 | 1027.6 |
| 20260906153503 | 62 | 306 | 1.7 | 2.6 | 0.00 | 0.00 | 0.00 | 51 | 1027.6 |
| 20260906153015 | 61 | 287 | 0.0 | 0.0 | 0.00 | 0.00 | 0.00 | 52 | 1027.6 |
| 20260906152504 | 60 | 288 | 0.0 | 0.0 | 0.00 | 0.00 | 0.00 | 52 | 1027.5 |
| 20260906152014 | 60 | 288 | 0.0 | 0.0 | 0.00 | 0.00 | 0.00 | 53 | 1027.6 |
| 20260906151504 | 59 | 288 | 0.9 | 2.6 | 0.00 | 0.00 | 0.00 | 55 | 1027.6 |
| 20260906151015 | 58 | 287 | 0.0 | 0.0 | 0.00 | 0.00 | 0.00 | 56 | 1027.6 |
| 20260906150514 | 57 | 287 | 0.0 | 0.9 | 0.00 | 0.00 | 0.00 | 58 | 1027.6 |
| 20260906150004 | 57 | 285 | 0.9 | 2.6 | 0.00 | 0.00 | 0.00 | 59 | 1027.6 |
| 20260906145515 | 56 | 248 | 0.0 | 2.6 | 0.00 | 0.00 | 0.00 | 60 | 1027.6 |
| 20260906145015 | 56 | 228 | 0.9 | 2.6 | 0.00 | 0.00 | 0.00 | 60 | 1027.7 |
| 20260906144504 | 56 | 148 | 0.0 | 0.0 | 0.00 | 0.00 | 0.00 | 61 | 1027.6 |
| 20260906144015 | 55 | 146 | 0.9 | 2.6 | 0.00 | 0.00 | 0.00 | 62 | 1027.6 |
| 20260906143515 | 55 | 141 | 0.0 | 2.6 | 0.00 | 0.00 | 0.00 | 63 | 1027.5 |
| 20260906143004 | 54 | 141 | 0.9 | 2.6 | 0.00 | 0.00 | 0.00 | 63 | 1027.5 |
| 20260906142515 | 54 | 138 | 1.7 | 2.6 | 0.00 | 0.00 | 0.00 | 63 | 1027.5 |
| 20260906142004 | 54 | 125 | 0.9 | 1.7 | 0.00 | 0.00 | 0.00 | 63 | 1027.6 |
| 20260906141515 | 54 | 125 | 0.0 | 0.0 | 0.00 | 0.00 | 0.00 | 64 | 1027.5 |
| 20260906141003 | 54 | 125 | 0.0 | 0.0 | 0.00 | 0.00 | 0.00 | 64 | 1027.5 |
| 20260906140515 | 54 | 125 | 0.0 | 0.9 | 0.00 | 0.00 | 0.00 | 64 | 1027.5 |
| 20260906140005 | 54 | 125 | 0.0 | 0.0 | 0.00 | 0.00 | 0.00 | 65 | 1027.4 |
| 20260906135516 | 53 | 125 | 0.0 | 0.0 | 0.00 | 0.00 | 0.00 | 66 | 1027.4 |
| 20260906135004 | 53 | 125 | 0.0 | 0.0 | 0.00 | 0.00 | 0.00 | 66 | 1027.3 |
| 20260906134515 | 52 | 125 | 0.0 | 0.9 | 0.00 | 0.00 | 0.00 | 67 | 1027.3 |
| 20260906134004 | 52 | 125 | 0.0 | 0.0 | 0.00 | 0.00 | 0.00 | 67 | 1027.3 |
| 20260906133515 | 52 | 125 | 0.0 | 0.0 | 0.00 | 0.00 | 0.00 | 66 | 1027.4 |
| 20260906133015 | 52 | 125 | 0.0 | 0.0 | 0.00 | 0.00 | 0.00 | 67 | 1027.3 |
| 20260906132515 | 52 | 125 | 0.0 | 0.0 | 0.00 | 0.00 | 0.00 | 67 | 1027.3 |
| 20260906132015 | 52 | 125 | 0.0 | 0.0 | 0.00 | 0.00 | 0.00 | 66 | 1027.3 |
| 20260906131504 | 52 | 125 | 0.0 | 0.0 | 0.00 | 0.00 | 0.00 | 67 | 1027.2 |
| 20260906131015 | 52 | 125 | 0.0 | 0.9 | 0.00 | 0.00 | 0.00 | 67 | 1027.2 |
| 20260906130515 | 52 | 125 | 1.7 | 2.6 | 0.00 | 0.00 | 0.00 | 67 | 1027.2 |
| 20260906130004 | 52 | 125 | 1.7 | 2.6 | 0.00 | 0.00 | 0.00 | 67 | 1027.2 |
| 20260906125514 | 52 | 125 | 0.0 | 0.0 | 0.00 | 0.00 | 0.00 | 67 | 1027.2 |
| 20260906125004 | 52 | 125 | 0.9 | 1.7 | 0.00 | 0.00 | 0.00 | 67 | 1027.1 |
| 20260906124515 | 52 | 125 | 0.9 | 1.7 | 0.00 | 0.00 | 0.00 | 67 | 1027.1 |
| 20260906124003 | 52 | 125 | 0.0 | 0.0 | 0.00 | 0.00 | 0.00 | 67 | 1027.1 |
| 20260906123515 | 52 | 125 | 0.0 | 1.7 | 0.00 | 0.00 | 0.00 | 67 | 1027.1 |
| 20260906123004 | 52 | 125 | 1.7 | 2.6 | 0.00 | 0.00 | 0.00 | 67 | 1027.0 |
| 20260906122514 | 52 | 125 | 2.6 | 2.6 | 0.00 | 0.00 | 0.00 | 67 | 1027.0 |
| 20260906122004 | 52 | 125 | 1.7 | 2.6 | 0.00 | 0.00 | 0.00 | 67 | 1027.0 |
| 20260906121515 | 52 | 125 | 0.9 | 1.7 | 0.00 | 0.00 | 0.00 | 67 | 1027.0 |
| 20260906121003 | 53 | 125 | 0.9 | 2.6 | 0.00 | 0.00 | 0.00 | 66 | 1027.0 |
| 20260906120515 | 53 | 125 | 0.0 | 2.6 | 0.00 | 0.00 | 0.00 | 66 | 1027.0 |
| 20260906120005 | 53 | 124 | 0.9 | 2.6 | 0.00 | 0.00 | 0.00 | 66 | 1027.1 |
| 20260906115515 | 53 | 123 | 1.7 | 2.6 | 0.00 | 0.00 | 0.00 | 65 | 1027.0 |
| 20260906115004 | 54 | 123 | 2.6 | 2.6 | 0.00 | 0.00 | 0.00 | 65 | 1027.0 |
| 20260906114515 | 54 | 123 | 1.7 | 2.6 | 0.00 | 0.00 | 0.00 | 65 | 1027.0 |
| 20260906114004 | 54 | 123 | 1.7 | 1.7 | 0.00 | 0.00 | 0.00 | 65 | 1027.0 |
| 20260906113515 | 53 | 122 | 0.9 | 2.6 | 0.00 | 0.00 | 0.00 | 66 | 1027.0 |
| 20260906113015 | 53 | 123 | 0.9 | 1.7 | 0.00 | 0.00 | 0.00 | 66 | 1027.0 |
| 20260906112514 | 53 | 123 | 0.9 | 2.6 | 0.00 | 0.00 | 0.00 | 65 | 1027.0 |
| 20260906112015 | 54 | 123 | 0.9 | 2.6 | 0.00 | 0.00 | 0.00 | 65 | 1027.0 |
| 20260906111504 | 54 | 123 | 0.0 | 0.0 | 0.00 | 0.00 | 0.00 | 65 | 1027.0 |
| 20260906111015 | 54 | 123 | 0.0 | 1.7 | 0.00 | 0.00 | 0.00 | 65 | 1026.9 |
| 20260906110504 | 54 | 123 | 1.7 | 2.6 | 0.00 | 0.00 | 0.00 | 65 | 1026.9 |
| 20260906110015 | 54 | 123 | 2.6 | 4.3 | 0.00 | 0.00 | 0.00 | 65 | 1026.9 |
| 20260906105504 | 54 | 122 | 3.5 | 4.3 | 0.00 | 0.00 | 0.00 | 65 | 1026.9 |
| 20260906105014 | 54 | 119 | 2.6 | 2.6 | 0.00 | 0.00 | 0.00 | 64 | 1027.0 |
| 20260906104504 | 54 | 96 | 2.6 | 2.6 | 0.00 | 0.00 | 0.00 | 64 | 1027.0 |
| 20260906104015 | 54 | 94 | 0.0 | 2.6 | 0.00 | 0.00 | 0.00 | 63 | 1027.0 |
| 20260906103504 | 54 | 94 | 0.0 | 0.0 | 0.00 | 0.00 | 0.00 | 63 | 1026.9 |
| 20260906103015 | 54 | 94 | 0.0 | 0.0 | 0.00 | 0.00 | 0.00 | 63 | 1026.9 |
| 20260906102504 | 54 | 94 | 0.0 | 0.0 | 0.00 | 0.00 | 0.00 | 62 | 1026.9 |
| 20260906102004 | 55 | 94 | 0.0 | 0.0 | 0.00 | 0.00 | 0.00 | 62 | 1026.9 |
| 20260906101515 | 55 | 94 | 0.0 | 0.0 | 0.00 | 0.00 | 0.00 | 61 | 1026.9 |
| 20260906101003 | 55 | 94 | 0.0 | 0.0 | 0.00 | 0.00 | 0.00 | 61 | 1026.9 |
| 20260906100515 | 55 | 94 | 0.0 | 0.0 | 0.00 | 0.00 | 0.00 | 61 | 1026.9 |
| 20260906100004 | 55 | 94 | 0.0 | 0.9 | 0.00 | 0.00 | 0.00 | 61 | 1026.9 |
| 20260906095516 | 55 | 94 | 0.9 | 2.6 | 0.00 | 0.00 | 0.00 | 61 | 1026.8 |
| 20260906095004 | 55 | 94 | 1.7 | 2.6 | 0.00 | 0.00 | 0.00 | 61 | 1026.8 |
| 20260906094515 | 55 | 94 | 1.7 | 2.6 | 0.00 | 0.00 | 0.00 | 61 | 1026.8 |
| 20260906094004 | 55 | 94 | 2.6 | 2.6 | 0.00 | 0.00 | 0.00 | 61 | 1026.8 |
| 20260906093504 | 55 | 94 | 1.7 | 2.6 | 0.00 | 0.00 | 0.00 | 61 | 1026.8 |
| 20260906093004 | 55 | 94 | 1.7 | 2.6 | 0.00 | 0.00 | 0.00 | 60 | 1026.8 |
| 20260906092504 | 55 | 94 | 1.7 | 2.6 | 0.00 | 0.00 | 0.00 | 60 | 1026.9 |
| 20260906092004 | 56 | 94 | 0.0 | 2.6 | 0.00 | 0.00 | 0.00 | 60 | 1026.9 |
| 20260906091515 | 56 | 94 | 0.0 | 1.7 | 0.00 | 0.00 | 0.00 | 60 | 1026.9 |
| 20260906091004 | 56 | 94 | 0.0 | 2.6 | 0.00 | 0.00 | 0.00 | 60 | 1026.9 |
| 20260906090514 | 55 | 94 | 2.6 | 2.6 | 0.00 | 0.00 | 0.00 | 60 | 1027.0 |
| 20260906090004 | 55 | 94 | 1.7 | 2.6 | 0.00 | 0.00 | 0.00 | 60 | 1026.9 |
| 20260906085514 | 55 | 94 | 1.7 | 2.6 | 0.00 | 0.00 | 0.00 | 60 | 1027.0 |
| 20260906085004 | 55 | 94 | 2.6 | 2.6 | 0.00 | 0.00 | 0.00 | 60 | 1026.9 |
| 20260906084515 | 55 | 94 | 1.7 | 2.6 | 0.00 | 0.00 | 0.00 | 60 | 1026.9 |
| 20260906084004 | 56 | 94 | 0.0 | 0.0 | 0.00 | 0.00 | 0.00 | 60 | 1026.9 |
| 20260906083515 | 56 | 94 | 0.0 | 0.0 | 0.00 | 0.00 | 0.00 | 60 | 1027.0 |
| 20260906083003 | 56 | 94 | 0.0 | 0.0 | 0.00 | 0.00 | 0.00 | 60 | 1027.0 |
| 20260906082515 | 56 | 94 | 0.0 | 0.0 | 0.00 | 0.00 | 0.00 | 60 | 1026.9 |
| 20260906082003 | 56 | 94 | 0.9 | 2.6 | 0.00 | 0.00 | 0.00 | 60 | 1027.0 |
| 20260906081515 | 55 | 94 | 1.7 | 2.6 | 0.00 | 0.00 | 0.00 | 61 | 1027.0 |
| 20260906081003 | 55 | 88 | 1.7 | 2.6 | 0.00 | 0.00 | 0.00 | 61 | 1027.0 |
| 20260906080515 | 55 | 34 | 0.0 | 2.6 | 0.00 | 0.00 | 0.00 | 61 | 1027.0 |
| 20260906080015 | 55 | 34 | 0.0 | 1.7 | 0.00 | 0.00 | 0.00 | 60 | 1026.9 |
| 20260906075504 | 55 | 34 | 2.6 | 4.3 | 0.00 | 0.00 | 0.00 | 61 | 1026.9 |
| 20260906075015 | 55 | 35 | 3.5 | 4.3 | 0.00 | 0.00 | 0.00 | 61 | 1026.9 |
| 20260906074504 | 55 | 31 | 2.6 | 4.3 | 0.00 | 0.00 | 0.00 | 62 | 1027.0 |
| 20260906074015 | 55 | 34 | 2.6 | 4.3 | 0.00 | 0.00 | 0.00 | 62 | 1027.0 |
| 20260906073515 | 55 | 42 | 1.7 | 2.6 | 0.00 | 0.00 | 0.00 | 62 | 1027.1 |
| 20260906073004 | 55 | 36 | 3.5 | 4.3 | 0.00 | 0.00 | 0.00 | 62 | 1027.1 |
| 20260906072515 | 55 | 33 | 4.3 | 7.0 | 0.00 | 0.00 | 0.00 | 62 | 1027.1 |
| 20260906072004 | 55 | 30 | 4.3 | 4.3 | 0.00 | 0.00 | 0.00 | 62 | 1027.1 |
| 20260906071515 | 55 | 33 | 4.3 | 5.2 | 0.00 | 0.00 | 0.00 | 62 | 1027.1 |
| 20260906071004 | 55 | 42 | 2.6 | 4.3 | 0.00 | 0.00 | 0.00 | 62 | 1027.1 |
| 20260906070515 | 55 | 28 | 5.2 | 6.1 | 0.00 | 0.00 | 0.00 | 62 | 1027.1 |
| 20260906070004 | 55 | 27 | 5.2 | 6.1 | 0.00 | 0.00 | 0.00 | 62 | 1027.1 |
| 20260906065515 | 56 | 25 | 4.3 | 7.0 | 0.00 | 0.00 | 0.00 | 62 | 1027.1 |
| 20260906065004 | 56 | 31 | 4.3 | 4.3 | 0.00 | 0.00 | 0.00 | 61 | 1027.1 |
| 20260906064515 | 56 | 13 | 1.7 | 4.3 | 0.00 | 0.00 | 0.00 | 60 | 1027.1 |
| 20260906064014 | 56 | 17 | 2.6 | 4.3 | 0.00 | 0.00 | 0.00 | 61 | 1027.1 |
| 20260906063515 | 56 | 11 | 2.6 | 4.3 | 0.00 | 0.00 | 0.00 | 60 | 1027.1 |
| 20260906063004 | 56 | 12 | 1.7 | 2.6 | 0.00 | 0.00 | 0.00 | 60 | 1027.1 |
| 20260906062503 | 56 | 355 | 1.7 | 2.6 | 0.00 | 0.00 | 0.00 | 60 | 1027.1 |
| 20260906062015 | 56 | 25 | 2.6 | 2.6 | 0.00 | 0.00 | 0.00 | 60 | 1027.1 |
| 20260906061514 | 57 | 29 | 1.7 | 5.2 | 0.00 | 0.00 | 0.00 | 61 | 1027.1 |
| 20260906061004 | 57 | 22 | 1.7 | 4.3 | 0.00 | 0.00 | 0.00 | 61 | 1027.1 |
| 20260906060515 | 57 | 23 | 1.7 | 4.3 | 0.00 | 0.00 | 0.00 | 60 | 1027.0 |
| 20260906060004 | 57 | 17 | 2.6 | 7.0 | 0.00 | 0.00 | 0.00 | 60 | 1027.2 |
| 20260906055515 | 57 | 3 | 1.7 | 5.2 | 0.00 | 0.00 | 0.00 | 61 | 1027.2 |
| 20260906055004 | 57 | 6 | 2.6 | 4.3 | 0.00 | 0.00 | 0.00 | 61 | 1027.2 |
| 20260906054515 | 57 | 3 | 1.7 | 4.3 | 0.00 | 0.00 | 0.00 | 61 | 1027.2 |
| 20260906054004 | 57 | 11 | 1.7 | 2.6 | 0.00 | 0.00 | 0.00 | 60 | 1027.3 |
| 20260906053515 | 57 | 22 | 0.9 | 2.6 | 0.00 | 0.00 | 0.00 | 61 | 1027.3 |
| 20260906053004 | 57 | 24 | 0.9 | 2.6 | 0.00 | 0.00 | 0.00 | 61 | 1027.3 |
| 20260906052515 | 57 | 349 | 1.7 | 4.3 | 0.00 | 0.00 | 0.00 | 61 | 1027.3 |
| 20260906052004 | 57 | 14 | 2.6 | 5.2 | 0.00 | 0.00 | 0.00 | 61 | 1027.4 |
| 20260906051515 | 57 | 26 | 2.6 | 5.2 | 0.00 | 0.00 | 0.00 | 62 | 1027.4 |
| 20260906051004 | 57 | 21 | 1.7 | 4.3 | 0.00 | 0.00 | 0.00 | 61 | 1027.4 |
| 20260906050515 | 57 | 7 | 1.7 | 5.2 | 0.00 | 0.00 | 0.00 | 61 | 1027.4 |
| 20260906050004 | 57 | 1 | 2.6 | 6.1 | 0.00 | 0.00 | 0.00 | 61 | 1027.4 |
| 20260906045515 | 57 | 7 | 2.6 | 7.0 | 0.00 | 0.00 | 0.00 | 60 | 1027.4 |
| 20260906045004 | 57 | 5 | 2.6 | 7.0 | 0.00 | 0.00 | 0.00 | 60 | 1027.4 |
| 20260906044514 | 58 | 12 | 4.3 | 8.7 | 0.00 | 0.00 | 0.00 | 59 | 1027.4 |
| 20260906044004 | 58 | 13 | 2.6 | 7.8 | 0.00 | 0.00 | 0.00 | 58 | 1027.4 |
| 20260906043515 | 58 | 358 | 1.7 | 4.3 | 0.00 | 0.00 | 0.00 | 57 | 1027.4 |
| 20260906043004 | 59 | 21 | 1.7 | 7.0 | 0.00 | 0.00 | 0.00 | 56 | 1027.4 |
| 20260906042515 | 59 | 359 | 3.5 | 7.8 | 0.00 | 0.00 | 0.00 | 56 | 1027.4 |
| 20260906042004 | 59 | 351 | 2.6 | 6.1 | 0.00 | 0.00 | 0.00 | 55 | 1027.4 |
| 20260906041516 | 59 | 7 | 1.7 | 4.3 | 0.00 | 0.00 | 0.00 | 54 | 1027.5 |
| 20260906041015 | 59 | 2 | 2.6 | 7.8 | 0.00 | 0.00 | 0.00 | 53 | 1027.5 |
| 20260906040503 | 60 | 9 | 3.5 | 7.8 | 0.00 | 0.00 | 0.00 | 53 | 1027.5 |
| 20260906040004 | 60 | 352 | 2.6 | 7.0 | 0.00 | 0.00 | 0.00 | 51 | 1027.5 |
| 20260906035504 | 60 | 3 | 2.6 | 7.0 | 0.00 | 0.00 | 0.00 | 50 | 1027.5 |
| 20260906035015 | 61 | 357 | 4.3 | 10.4 | 0.00 | 0.00 | 0.00 | 49 | 1027.5 |
| 20260906034514 | 61 | 337 | 4.3 | 10.4 | 0.00 | 0.00 | 0.00 | 47 | 1027.5 |
| 20260906034004 | 62 | 20 | 2.6 | 4.3 | 0.00 | 0.00 | 0.00 | 47 | 1027.5 |
| 20260906033515 | 62 | 320 | 0.9 | 2.6 | 0.00 | 0.00 | 0.00 | 47 | 1027.4 |
| 20260906033004 | 62 | 302 | 2.6 | 4.3 | 0.00 | 0.00 | 0.00 | 47 | 1027.5 |
| 20260906032515 | 62 | 138 | 0.0 | 0.0 | 0.00 | 0.00 | 0.00 | 46 | 1027.4 |
| 20260906032004 | 63 | 136 | 0.0 | 0.0 | 0.00 | 0.00 | 0.00 | 46 | 1027.3 |
| 20260906031515 | 63 | 136 | 0.0 | 0.9 | 0.00 | 0.00 | 0.00 | 45 | 1027.2 |
| 20260906031004 | 63 | 136 | 0.9 | 4.3 | 0.00 | 0.00 | 0.00 | 45 | 1027.1 |
| 20260906030515 | 63 | 109 | 1.7 | 5.2 | 0.00 | 0.00 | 0.00 | 45 | 1027.1 |
| 20260906030003 | 63 | 119 | 1.7 | 6.1 | 0.00 | 0.00 | 0.00 | 45 | 1027.0 |
| 20260906025515 | 63 | 98 | 0.9 | 2.6 | 0.00 | 0.00 | 0.00 | 45 | 1026.9 |
| 20260906025004 | 63 | 90 | 0.0 | 2.6 | 0.00 | 0.00 | 0.00 | 45 | 1026.9 |
| 20260906024515 | 63 | 106 | 1.7 | 5.2 | 0.00 | 0.00 | 0.00 | 45 | 1026.8 |
| 20260906024004 | 63 | 90 | 4.3 | 7.0 | 0.00 | 0.00 | 0.00 | 45 | 1026.8 |
| 20260906023515 | 63 | 106 | 4.3 | 7.8 | 0.00 | 0.00 | 0.00 | 45 | 1026.8 |
| 20260906023003 | 63 | 110 | 4.3 | 7.0 | 0.00 | 0.00 | 0.00 | 45 | 1026.8 |
| 20260906022515 | 64 | 102 | 4.3 | 7.8 | 0.00 | 0.00 | 0.00 | 45 | 1026.7 |
| 20260906022004 | 64 | 104 | 4.3 | 7.8 | 0.00 | 0.00 | 0.00 | 45 | 1026.6 |
| 20260906021515 | 64 | 113 | 4.3 | 8.7 | 0.00 | 0.00 | 0.00 | 44 | 1026.6 |
| 20260906021015 | 64 | 95 | 4.3 | 10.4 | 0.00 | 0.00 | 0.00 | 44 | 1026.5 |
| 20260906020515 | 64 | 106 | 5.2 | 10.4 | 0.00 | 0.00 | 0.00 | 45 | 1026.5 |
| 20260906020015 | 64 | 103 | 4.3 | 11.3 | 0.00 | 0.00 | 0.00 | 45 | 1026.5 |
| 20260906015514 | 64 | 108 | 6.1 | 10.4 | 0.00 | 0.00 | 0.00 | 45 | 1026.4 |
| 20260906015004 | 65 | 116 | 6.1 | 10.4 | 0.00 | 0.00 | 0.00 | 45 | 1026.3 |
| 20260906014515 | 65 | 101 | 5.2 | 11.3 | 0.00 | 0.00 | 0.00 | 44 | 1026.3 |
| 20260906014003 | 65 | 106 | 7.8 | 11.3 | 0.00 | 0.00 | 0.00 | 44 | 1026.2 |
| 20260906013515 | 65 | 108 | 6.1 | 10.4 | 0.00 | 0.00 | 0.00 | 44 | 1026.2 |
| 20260906013004 | 66 | 108 | 5.2 | 11.3 | 0.00 | 0.00 | 0.00 | 44 | 1026.1 |
| 20260906012514 | 66 | 113 | 6.1 | 13.9 | 0.00 | 0.00 | 0.00 | 43 | 1026.1 |
| 20260906012004 | 66 | 109 | 7.0 | 10.4 | 0.00 | 0.00 | 0.00 | 42 | 1026.1 |
| 20260906011515 | 66 | 120 | 5.2 | 10.4 | 0.00 | 0.00 | 0.00 | 41 | 1026.1 |
| 20260906011014 | 67 | 114 | 4.3 | 10.4 | 0.00 | 0.00 | 0.00 | 41 | 1026.2 |
| 20260906010504 | 67 | 102 | 5.2 | 11.3 | 0.00 | 0.00 | 0.00 | 40 | 1026.1 |
| 20260906010014 | 68 | 109 | 7.8 | 12.2 | 0.00 | 0.00 | 0.00 | 39 | 1026.1 |
| 20260906005515 | 68 | 107 | 1.7 | 7.0 | 0.00 | 0.00 | 0.00 | 39 | 1026.1 |
| 20260906005004 | 69 | 118 | 1.7 | 7.8 | 0.00 | 0.00 | 0.00 | 38 | 1026.2 |
| 20260906004515 | 69 | 126 | 2.6 | 11.3 | 0.00 | 0.00 | 0.00 | 37 | 1026.2 |
| 20260906004004 | 69 | 110 | 6.1 | 13.0 | 0.00 | 0.00 | 0.00 | 37 | 1026.1 |
| 20260906003515 | 70 | 115 | 7.0 | 12.2 | 0.00 | 0.00 | 0.00 | 37 | 1026.1 |
| 20260906003004 | 70 | 113 | 7.8 | 11.3 | 0.00 | 0.00 | 0.00 | 37 | 1026.1 |
| 20260906002515 | 70 | 124 | 9.6 | 13.9 | 0.00 | 0.00 | 0.00 | 37 | 1026.0 |
| 20260906002004 | 70 | 115 | 8.7 | 15.6 | 0.00 | 0.00 | 0.00 | 36 | 1026.0 |
| 20260906001515 | 70 | 119 | 8.7 | 17.4 | 0.00 | 0.00 | 0.00 | 36 | 1025.9 |
| 20260906001004 | 71 | 119 | 9.6 | 14.8 | 0.00 | 0.00 | 0.00 | 35 | 1025.9 |
| 20260906000515 | 71 | 107 | 4.3 | 17.4 | 0.00 | 0.00 | 0.00 | 35 | 1025.9 |
| 20260906000004 | 72 | 108 | 7.8 | 13.9 | 0.00 | 0.00 | 0.00 | 34 | 1025.9 |
| 20260905235515 | 72 | 111 | 7.0 | 17.4 | 0.00 | 0.00 | 0.00 | 33 | 1025.9 |
| 20260905235004 | 72 | 122 | 8.7 | 12.2 | 0.00 | 0.00 | 0.00 | 33 | 1025.9 |
| 20260905234515 | 72 | 122 | 7.8 | 13.0 | 0.00 | 0.00 | 0.00 | 33 | 1025.9 |
| 20260905234003 | 73 | 133 | 6.1 | 10.4 | 0.00 | 0.00 | 0.00 | 33 | 1025.9 |
| 20260905233515 | 73 | 112 | 7.8 | 17.4 | 0.00 | 0.00 | 0.00 | 33 | 1025.9 |
| 20260905233004 | 73 | 117 | 7.8 | 15.6 | 0.00 | 0.00 | 0.00 | 33 | 1025.8 |
| 20260905232514 | 72 | 124 | 5.2 | 7.8 | 0.00 | 0.00 | 0.00 | 34 | 1025.8 |
| 20260905232004 | 72 | 92 | 0.0 | 0.0 | 0.00 | 0.00 | 0.00 | 34 | 1025.7 |
| 20260905231515 | 72 | 114 | 0.0 | 7.8 | 0.00 | 0.00 | 0.00 | 33 | 1025.7 |
| 20260905231003 | 71 | 103 | 5.2 | 11.3 | 0.00 | 0.00 | 0.00 | 35 | 1025.7 |
| 20260905230514 | 72 | 115 | 7.8 | 12.2 | 0.00 | 0.00 | 0.00 | 33 | 1025.8 |
| 20260905230004 | 72 | 108 | 7.8 | 13.9 | 0.00 | 0.00 | 0.00 | 33 | 1025.7 |
| 20260905225515 | 73 | 104 | 4.3 | 13.0 | 0.00 | 0.00 | 0.00 | 32 | 1025.8 |
| 20260905225004 | 74 | 97 | 8.7 | 13.9 | 0.00 | 0.00 | 0.00 | 31 | 1025.7 |